London-Corbin, KY

12:18 AM EDT on October 20, 2019 (GMT -0400)
London-Corbin / McKee

Weather History for KLOZ - September, 2019

Change the Weather History Date:

Friday, September 20, 2019

  Actual Average Record
Temperature  
Mean Temperature 72 °F 67 °F  
Max Temperature 83 °F 78 °F 92 °F (1955)
Min Temperature 61 °F 55 °F 40 °F (1956)
Degree Days  
Heating Degree Days 0 2  
Month to date heating degree days 0 13  
Since 1 July heating degree days 0 14  
Cooling Degree Days 7 4  
Month to date cooling degree days 220 117  
Year to date cooling degree days 1334 1141  
Growing Degree Days 22 (Base 50)    
Moisture  
Dew Point 60 °F    
Average Humidity 67    
Maximum Humidity 87    
Minimum Humidity 47    
Precipitation  
Precipitation 0.00 in 0.11 in 1.62 in (1958)
Month to date precipitation T 2.24  
Sea Level Pressure  
Sea Level Pressure 30.21 in    
Wind  
Wind Speed 3 mph (SSW)    
Max Wind Speed 15 mph    
Max Gust Speed 25 mph    
Visibility 10 miles    
Events      
T = Trace of Precipitation, MM = Missing Value Source: NWS Daily Summary

Daily Weather History Graph

Daily Weather History Graph

Search for Another Location

Airport or City:

Astronomy

Sep. 20, 2019 Rise Set
Actual Time 7:22 AM EDT 7:36 PM EDT
Civil Twilight 6:56 AM EDT 8:02 PM EDT
Nautical Twilight 6:25 AM EDT 8:32 PM EDT
Astronomical Twilight 5:54 AM EDT 9:03 PM EDT
Moon 11:33 PM EDT 1:18 PM EDT
Length of Visible Light 13h 06m
Length of Day
12h 14m
Waning Gibbous, 65% of the Moon is Illuminated
Sep 20
Waning Gibbous
Sep 21
Last Quarter
Sep 28
New
Oct 5
First Quarter
Oct 13
Full

Hourly Weather History & Observations

Time (EDT) Temp. Heat Index Dew Point Humidity Pressure Visibility Wind Dir Wind Speed Gust Speed Precip Events Conditions
12:53 AM 64.9 °F - 60.1 °F 84% 30.15 in 10.0 mi SSE 3.5 mph - N/A   Clear
1:53 AM 66.0 °F - 60.1 °F 81% 30.16 in 10.0 mi Calm Calm - N/A   Clear
2:53 AM 64.0 °F - 60.1 °F 87% 30.17 in 10.0 mi SE 3.5 mph - N/A   Scattered Clouds
3:53 AM 66.0 °F - 60.1 °F 81% 30.18 in 10.0 mi Calm Calm - N/A   Overcast
4:53 AM 64.9 °F - 59.0 °F 81% 30.19 in 10.0 mi Calm Calm - N/A   Mostly Cloudy
5:53 AM 64.0 °F - 57.9 °F 80% 30.20 in 10.0 mi Calm Calm - N/A   Scattered Clouds
6:53 AM 62.1 °F - 57.9 °F 86% 30.21 in 10.0 mi SSE 3.5 mph - N/A   Clear
7:53 AM 62.1 °F - 57.9 °F 86% 30.23 in 10.0 mi Calm Calm - N/A   Clear
8:53 AM 66.0 °F - 59.0 °F 78% 30.25 in 10.0 mi South 4.6 mph - N/A   Clear
9:53 AM 70.0 °F - 59.0 °F 68% 30.26 in 10.0 mi South 9.2 mph - N/A   Scattered Clouds
10:53 AM 73.9 °F - 57.9 °F 57% 30.26 in 10.0 mi SSW 8.1 mph 16.1 mph N/A   Clear
11:53 AM 78.1 °F - 57.9 °F 50% 30.25 in 10.0 mi SSW 9.2 mph - N/A   Clear
12:53 PM 78.1 °F - 59.0 °F 52% 30.24 in 10.0 mi SSW 8.1 mph - N/A   Scattered Clouds
1:53 PM 79.0 °F - 57.9 °F 48% 30.22 in 10.0 mi WSW 10.4 mph 17.3 mph N/A   Clear
2:53 PM 81.0 °F 81.3 °F 59.0 °F 47% 30.21 in 10.0 mi WSW 6.9 mph - N/A   Clear
3:53 PM 82.0 °F 82.4 °F 60.1 °F 47% 30.19 in 10.0 mi North - - N/A   Clear
4:53 PM 82.0 °F 82.7 °F 61.0 °F 49% 30.19 in 10.0 mi Variable 3.5 mph - N/A   Clear
5:53 PM 82.0 °F 82.7 °F 61.0 °F 49% 30.18 in 10.0 mi SSW 6.9 mph - N/A   Clear
6:53 PM 82.0 °F 82.7 °F 61.0 °F 49% 30.18 in 10.0 mi SSW 3.5 mph - N/A   Clear
7:53 PM 78.1 °F - 63.0 °F 60% 30.19 in 10.0 mi Calm Calm - N/A   Clear
8:53 PM 73.0 °F - 64.0 °F 73% 30.20 in 10.0 mi Calm Calm - N/A   Clear
9:53 PM 70.0 °F - 64.0 °F 81% 30.22 in 10.0 mi Calm Calm - N/A   Clear
10:53 PM 68.0 °F - 64.0 °F 87% 30.22 in 10.0 mi Calm Calm - N/A   Clear
11:53 PM 68.0 °F - 64.0 °F 87% 30.23 in 10.0 mi Calm Calm - N/A   Scattered Clouds